This is the latest recevied weather packets stored in our database for station/object AD7ZD. If no packets are shown the sender has not sent any weather packets the latest 10 day(s).
| Time | Temp. | Humidity | Pressure | Rain* | Wind** | Luminosity | Snow |
|---|---|---|---|---|---|---|---|
| 1778195912 | 28.33° C | 16% | 1013.8 hPa | 0 mm | - | 519 W/m² | - |
| 1778195608 | 28.33° C | 15% | 1013.8 hPa | 0 mm | - | 569 W/m² | - |
| 1778195304 | 28.33° C | 17% | 1013.9 hPa | 0 mm | - | 577 W/m² | - |
| 1778195002 | 27.78° C | 16% | 1014.1 hPa | 0 mm | - | 531 W/m² | - |
| 1778194702 | 28.33° C | 16% | 1013.8 hPa | 0 mm | - | 558 W/m² | - |
| 1778194398 | 27.78° C | 16% | 1013.9 hPa | 0 mm | - | 590 W/m² | - |
| 1778194094 | 27.78° C | 17% | 1014.2 hPa | 0 mm | - | 587 W/m² | - |
| 1778193791 | 28.33° C | 16% | 1014.1 hPa | 0 mm | - | 575 W/m² | - |
| 1778193487 | 27.78° C | 16% | 1014.1 hPa | 0 mm | - | 592 W/m² | - |
| 1778193183 | 27.78° C | 17% | 1014.2 hPa | 0 mm | - | 580 W/m² | - |
| 1778192881 | 27.78° C | 16% | 1014.2 hPa | 0 mm | - | 628 W/m² | - |
| 1778192577 | 27.78° C | 17% | 1014.3 hPa | 0 mm | - | 599 W/m² | - |
| 1778192274 | 28.33° C | 16% | 1014.4 hPa | 0 mm | - | 620 W/m² | - |
| 1778191970 | 28.33° C | 16% | 1014.3 hPa | 0 mm | - | 595 W/m² | - |
| 1778191666 | 27.78° C | 16% | 1014.3 hPa | 0 mm | - | 657 W/m² | - |
| 1778191365 | 28.33° C | 16% | 1014.5 hPa | 0 mm | - | 674 W/m² | - |
| 1778191061 | 27.78° C | 18% | 1014.5 hPa | 0 mm | - | 689 W/m² | - |
| 1778190759 | 27.78° C | 16% | 1014.7 hPa | 0 mm | - | 667 W/m² | - |
| 1778190456 | 27.78° C | 17% | 1014.6 hPa | 0 mm | - | 692 W/m² | - |
| 1778190153 | 27.78° C | 17% | 1014.9 hPa | 0 mm | - | 679 W/m² | - |
| 1778189848 | 27.78° C | 16% | 1014.7 hPa | 0 mm | - | 700 W/m² | - |
| 1778189545 | 27.78° C | 18% | 1014.6 hPa | 0 mm | - | 708 W/m² | - |
| 1778189241 | 27.22° C | 19% | 1014.9 hPa | 0 mm | - | 734 W/m² | - |
| 1778188938 | 27.22° C | 20% | 1015.2 hPa | 0 mm | - | 707 W/m² | - |
| 1778188635 | 26.67° C | 21% | 1015.1 hPa | 0 mm | - | 637 W/m² | - |
* Rain latest hour (hover to see other rain measurements)
** Current wind speed in m/s (hover to see current wind gust speed)